Regional Weather Roundup
Issued by NWS

Home | Current Version | Previous Version | Graphics & Text | Print | Product List | Glossary On
Versions: 1 2 3 4 5 6 7 8 9 10 11 12 13 14 15 16 17 18 19 20 21 22 23 24 25 26 27 28 29 30 31 32 33 34 35 36 37 38 39 40 41 42 43 44 45 46 47 48 49 50
000
ASUS43 KIND 020609
RWRIN

WEATHER ROUNDUP FOR INDIANA
NATIONAL WEATHER SERVICE INDIANAPOLIS IN
200 AM EDT WED SEP 02 2015

NOTE: "FAIR" INDICATES FEW OR NO CLOUDS BELOW 12,000 FEET WITH NO
SIGNIFICANT WEATHER AND/OR OBSTRUCTIONS TO VISIBILITY.

* - STATION DOES NOT REPORT WEATHER SUCH AS PRECIPITATION OR FOG.

+ - STATION NOT QUALITY CONTROLLED BY THE NATIONAL WEATHER SERVICE.
    USE DATA WITH CAUTION...ESPECIALLY DEWPOINT AND RELATIVE
    HUMIDITY OBSERVATIONS.

INZ001>003-010>013-019-020-020700-
NORTHWEST INDIANA

CITY           SKY/WX    TMP DP  RH WIND       PRES   REMARKS
GARY /AIRPORT/ FAIR      76  67  74 SW3       30.05S
KNOX *+        FAIR      70  68  94 S5        30.07S
LA PORTE +     FAIR      71  71 100 SW3       30.08S
6HR MIN TEMP:  71; 6HR MAX TEMP:  81;

MICHIGAN CITY+ FAIR      72  68  88 S3        30.06S
MONTICELLO +   FAIR      70  69  98 S3        30.07S
6HR MIN TEMP:  70; 6HR MAX TEMP:  79;

RENSSELAER +   FAIR      70  70 100 SW6       30.07F
VALPARAISO     FAIR      72  68  87 CALM      30.07S
6HR MIN TEMP:  72; 6HR MAX TEMP:  82;


$$

LMZ046-743>745-020700-
SOUTHERN LAKE MICHIGAN

STATION/POSITION TIME  TEMP    WIND        PRES    WAVE
                       AIR SEA DIR/SP/G            HT
                 (UTC) (F)     (DEG/KT/KT) (MB)    (FT)
BURNS HARBOR     0500   76     200/ 11/ 14 1017.9S
MICHIGAN CITY    0500   76     180/ 10/ 11   N/A
5NW MICH CITY    0600   75 72  230/  8/ 10   N/A     1

$$

INZ004-005-014>016-021>024-020700-
NORTH CENTRAL INDIANA

CITY           SKY/WX    TMP DP  RH WIND       PRES   REMARKS
GOSHEN         FAIR      71  67  87 SW3       30.07F
6HR MIN TEMP:  70; 6HR MAX TEMP:  80;

LOGANSPORT +   FAIR      66  63  88 S5        30.09S
PERU/GRISSOM   FAIR      69  66  91 SW2       30.08F
6HR MIN TEMP:  69; 6HR MAX TEMP:  78;

ROCHESTER +    FAIR      73  68  83 SW3       30.09S
SOUTH BEND     FAIR      72  68  87 SW7       30.07F
6HR MIN TEMP:  71; 6HR MAX TEMP:  81;

WARSAW +       FAIR      70  68  94 CALM      30.08F

$$

INZ006>009-017-018-025>027-020700-
NORTHEAST INDIANA

CITY           SKY/WX    TMP DP  RH WIND       PRES   REMARKS
ANGOLA *+      CLEAR     70  61  73 CALM      30.09S
AUBURN +       FAIR      70  66  88 CALM      30.09F
FORT WAYNE     FAIR      70  66  87 S5        30.10S
6HR MIN TEMP:  70; 6HR MAX TEMP:  78;

HUNTINGTON +   FAIR      68  65  88 CALM      30.09S
6HR MIN TEMP:  68; 6HR MAX TEMP:  78;


$$

INZ028-029-035-036-043>045-051>053-020700-
WEST CENTRAL INDIANA

CITY           SKY/WX    TMP DP  RH WIND       PRES   REMARKS
CRAWFORDSVL +  MOCLDY    65  65  99 S3        30.10F
6HR MIN TEMP:  64; 6HR MAX TEMP:  76;

GREENCASTLE +  FAIR      66  63  88 CALM      30.11S
LAFAYETTE      FAIR      69  67  93 CALM      30.08S
6HR MIN TEMP:  69; 6HR MAX TEMP:  79;

TERRE HAUTE    FAIR      67  64  90 CALM      30.10S
6HR MIN TEMP:  66; 6HR MAX TEMP:  81;


$$

INZ030>032-037>040-046>048-054>057-064-065-020700-
CENTRAL INDIANA

CITY           SKY/WX    TMP DP  RH WIND       PRES   REMARKS
FRANKFORT +    FAIR     N/A N/A N/A CALM      30.12S
GREENWOOD *+   FAIR      66  64  94 CALM      30.12S
INDIANAPOLIS   FAIR      72  66  81 SW6       30.10S
6HR MIN TEMP:  71; 6HR MAX TEMP:  79;

-EAGLE CREEK   FAIR      70  67  90 CALM      30.10S
6HR MIN TEMP:  70; 6HR MAX TEMP:  81;

KOKOMO *+      FAIR      70  63  78 SW6       30.09F
6HR MIN TEMP:  70; 6HR MAX TEMP:  81;

MARION +       FAIR      66  60  81 CALM      30.11S
MT COMFORT *+  FAIR      66 N/A N/A S3        30.11F
SHELBYVILLE    FAIR      68  65  90 SE3       30.11S FOG
6HR MIN TEMP:  68; 6HR MAX TEMP:  81;

ZIONSVILLE +   FAIR      66  63  89 CALM      30.11F
6HR MIN TEMP:  65; 6HR MAX TEMP:  78;


$$

INZ033-034-041-042-049-050-058-059-020700-
EAST CENTRAL INDIANA

CITY           SKY/WX    TMP DP  RH WIND       PRES   REMARKS
MUNCIE         FAIR      70  65  84 S3        30.11S
6HR MIN TEMP:  70; 6HR MAX TEMP:  78;


$$

INZ060-061-067>069-081>083-085>088-020700-
SOUTHWEST INDIANA

CITY           SKY/WX    TMP DP  RH WIND       PRES   REMARKS
EVANSVILLE     FAIR      73  70  90 CALM      30.10F FOG
6HR MIN TEMP:  72; 6HR MAX TEMP:  85;

HUNTINGBURG *+ FAIR      70  66  88 CALM      30.11S
6HR MIN TEMP:  70; 6HR MAX TEMP:  81;

WASHINGTON +   FAIR      68  64  88 CALM      30.10F
6HR MIN TEMP:  68; 6HR MAX TEMP:  80;


$$

INZ062-063-066-070>080-084-089>092-020700-
SOUTH CENTRAL AND SOUTHEAST INDIANA

CITY           SKY/WX    TMP DP  RH WIND       PRES   REMARKS
BLOOMINGTON    FAIR      66  64  93 CALM      30.12S FOG
6HR MIN TEMP:  66; 6HR MAX TEMP:  79;

MADISON *+     FAIR      68  64  88 CALM      30.14S
NORTH VERNON + FAIR      70  70 100 CALM      30.13  FOG
SEYMOUR +      FOG       64  64 100 CALM      30.11S VSB 1/4

$$




USA.gov is the U.S. government's official web portal to all federal, state and local government web resources and services.